Hourly Weather Bar-le-Duc

Today, 26 September, Saturday

Time Temperature Precipitation Wind Pressure Humidity
00:00 +7°C° 0 mm 6 mps 733 mmHg 80%
01:00 +6°C° 0 mm 7 mps 732 mmHg 81%
02:00 +5°C° 0 mm 7 mps 732 mmHg 81%
03:00 +5°C° 0 mm 8 mps 732 mmHg 81%
04:00 +5°C° 0.2 mm 8 mps 732 mmHg 80%
05:00 +5°C° 0.2 mm 9 mps 732 mmHg 80%
06:00 +5°C° 0 mm 8 mps 732 mmHg 78%
07:00 +5°C° 0.7 mm 8 mps 732 mmHg 80%
08:00 +5°C° 0.7 mm 8 mps 732 mmHg 82%
09:00 +5°C° 0.7 mm 8 mps 732 mmHg 84%
10:00 +5°C° 1 mm 8 mps 732 mmHg 86%
11:00 +5°C° 1 mm 8 mps 732 mmHg 88%
12:00 +5°C° 1 mm 8 mps 732 mmHg 90%
13:00 +5°C° 1.7 mm 7 mps 732 mmHg 90%
14:00 +7°C° 1.7 mm 6 mps 732 mmHg 90%
15:00 +7°C° 1.7 mm 5 mps 732 mmHg 90%
16:00 +7°C° 0.5 mm 6 mps 732 mmHg 90%
17:00 +7°C° 0.5 mm 6 mps 732 mmHg 90%
18:00 +7°C° 0.5 mm 6 mps 732 mmHg 89%
19:00 +7°C° 0.1 mm 6 mps 732 mmHg 91%
20:00 +7°C° 0.1 mm 6 mps 732 mmHg 92%
21:00 +7°C° 0.1 mm 5 mps 732 mmHg 93%
22:00 +7°C° 0.5 mm 5 mps 731 mmHg 94%
23:00 +7°C° 0.5 mm 5 mps 731 mmHg 95%

Tomorrow, 27 September, Sunday

Time Temperature Precipitation Wind Pressure Humidity
00:00 +8°C° 0.5 mm 5 mps 731 mmHg 96%
01:00 +8°C° 2.3 mm 5 mps 730 mmHg 96%
02:00 +8°C° 2.3 mm 6 mps 729 mmHg 97%
03:00 +8°C° 2.3 mm 6 mps 728 mmHg 97%
04:00 +8°C° 3.4 mm 6 mps 727 mmHg 97%
05:00 +8°C° 3.4 mm 7 mps 727 mmHg 97%
06:00 +7°C° 3.4 mm 8 mps 726 mmHg 96%
07:00 +8°C° 1.7 mm 7 mps 727 mmHg 96%
08:00 +9°C° 1.7 mm 6 mps 727 mmHg 96%
09:00 +9°C° 1.7 mm 5 mps 727 mmHg 96%
10:00 +9°C° 0.2 mm 5 mps 728 mmHg 94%
11:00 +9°C° 0.2 mm 6 mps 729 mmHg 91%
12:00 +9°C° 0.2 mm 7 mps 729 mmHg 89%
13:00 +9°C° 0 mm 6 mps 730 mmHg 86%
14:00 +9°C° 0 mm 6 mps 731 mmHg 83%
15:00 +9°C° 0 mm 6 mps 731 mmHg 80%
16:00 +9°C° 0 mm 5 mps 732 mmHg 80%
17:00 +8°C° 0 mm 4 mps 732 mmHg 80%
18:00 +9°C° 0 mm 3 mps 733 mmHg 80%
19:00 +8°C° 0 mm 3 mps 734 mmHg 82%
20:00 +8°C° 0 mm 3 mps 735 mmHg 84%
21:00 +7°C° 0 mm 3 mps 736 mmHg 86%
22:00 +7°C° 0 mm 2 mps 736 mmHg 88%
23:00 +7°C° 0 mm 1 mps 736 mmHg 91%

Day after tomorrow, 28 September, Monday

Time Temperature Precipitation Wind Pressure Humidity
00:00 +6°C° 0 mm 1 mps 736 mmHg 93%
01:00 +6°C° 0 mm 1 mps 736 mmHg 93%
02:00 +4°C° 0 mm 0 mps 736 mmHg 93%
03:00 +4°C° 0 mm 0 mps 736 mmHg 92%
04:00 +4°C° 0 mm 0 mps 737 mmHg 93%
05:00 +5°C° 0 mm 1 mps 737 mmHg 93%
06:00 +6°C° 0 mm 1 mps 737 mmHg 93%
07:00 +7°C° 0 mm 1 mps 737 mmHg 88%
08:00 +9°C° 0 mm 1 mps 738 mmHg 83%
09:00 +9°C° 0 mm 2 mps 738 mmHg 78%
10:00 +10°C° 0 mm 2 mps 738 mmHg 77%
11:00 +10°C° 0 mm 3 mps 738 mmHg 75%
12:00 +11°C° 0 mm 3 mps 738 mmHg 74%
13:00 +11°C° 0 mm 3 mps 738 mmHg 76%
14:00 +11°C° 0 mm 4 mps 738 mmHg 77%
15:00 +12°C° 0 mm 4 mps 738 mmHg 79%
16:00 +11°C° 0.1 mm 4 mps 738 mmHg 84%
17:00 +11°C° 0.1 mm 4 mps 738 mmHg 89%
18:00 +10°C° 0.1 mm 4 mps 739 mmHg 94%
19:00 +11°C° 0.7 mm 4 mps 739 mmHg 96%
20:00 +11°C° 0.7 mm 4 mps 739 mmHg 97%
21:00 +12°C° 0.7 mm 3 mps 739 mmHg 98%
22:00 +12°C° 0.4 mm 4 mps 740 mmHg 98%
23:00 +12°C° 0.4 mm 4 mps 740 mmHg 98%

29 September, Tuesday

Time Temperature Precipitation Wind Pressure Humidity
00:00 +13°C° 0.4 mm 4 mps 740 mmHg 98%
01:00 +12°C° 0 mm 4 mps 740 mmHg 97%
02:00 +12°C° 0 mm 4 mps 740 mmHg 97%
03:00 +11°C° 0 mm 3 mps 740 mmHg 96%
04:00 +11°C° 0 mm 3 mps 741 mmHg 95%
05:00 +11°C° 0 mm 3 mps 741 mmHg 94%
06:00 +10°C° 0 mm 3 mps 741 mmHg 93%
07:00 +11°C° 0 mm 3 mps 741 mmHg 92%
08:00 +12°C° 0 mm 3 mps 742 mmHg 90%
09:00 +12°C° 0 mm 3 mps 742 mmHg 88%
10:00 +14°C° 0 mm 3 mps 742 mmHg 82%
11:00 +16°C° 0 mm 3 mps 743 mmHg 75%
12:00 +18°C° 0 mm 3 mps 743 mmHg 68%
13:00 +18°C° 0 mm 3 mps 743 mmHg 69%
14:00 +18°C° 0 mm 3 mps 742 mmHg 69%
15:00 +18°C° 0 mm 3 mps 742 mmHg 70%
16:00 +16°C° 0 mm 2 mps 742 mmHg 77%
17:00 +15°C° 0 mm 2 mps 742 mmHg 84%
18:00 +14°C° 0 mm 2 mps 742 mmHg 91%
19:00 +14°C° 0 mm 2 mps 742 mmHg 93%
20:00 +13°C° 0 mm 1 mps 742 mmHg 95%
21:00 +13°C° 0 mm 1 mps 742 mmHg 96%
22:00 +13°C° 0 mm 1 mps 742 mmHg 97%
23:00 +12°C° 0 mm 2 mps 742 mmHg 97%

30 September, Wednesday

Time Temperature Precipitation Wind Pressure Humidity
00:00 +12°C° 0 mm 2 mps 742 mmHg 97%
01:00 +12°C° 0 mm 2 mps 741 mmHg 97%
02:00 +12°C° 0 mm 2 mps 741 mmHg 97%
03:00 +12°C° 0 mm 2 mps 741 mmHg 97%
04:00 +10°C° 0 mm 2 mps 741 mmHg 97%
05:00 +10°C° 0 mm 2 mps 741 mmHg 97%
06:00 +10°C° 0 mm 2 mps 741 mmHg 97%
07:00 +12°C° 0 mm 2 mps 741 mmHg 92%
08:00 +13°C° 0 mm 2 mps 741 mmHg 86%
09:00 +14°C° 0 mm 2 mps 741 mmHg 80%
10:00 +15°C° 0 mm 2 mps 740 mmHg 73%
11:00 +16°C° 0 mm 2 mps 740 mmHg 67%
12:00 +17°C° 0 mm 3 mps 740 mmHg 60%
13:00 +18°C° 0 mm 2 mps 740 mmHg 60%
14:00 +18°C° 0 mm 2 mps 739 mmHg 60%
15:00 +18°C° 0 mm 2 mps 739 mmHg 59%
16:00 +17°C° 0 mm 2 mps 738 mmHg 66%
17:00 +16°C° 0 mm 2 mps 738 mmHg 73%
18:00 +14°C° 0 mm 1 mps 738 mmHg 80%
19:00 +14°C° 0.1 mm 2 mps 737 mmHg 83%
20:00 +14°C° 0.1 mm 2 mps 737 mmHg 85%
21:00 +13°C° 0.1 mm 3 mps 737 mmHg 88%
22:00 +13°C° 0.2 mm 3 mps 736 mmHg 88%
23:00 +13°C° 0.2 mm 3 mps 735 mmHg 88%

1 October, Thursday

Time Temperature Precipitation Wind Pressure Humidity
00:00 +13°C° 0.2 mm 3 mps 735 mmHg 88%
01:00 +13°C° 0.2 mm 4 mps 734 mmHg 89%
02:00 +13°C° 0.2 mm 4 mps 734 mmHg 90%
03:00 +13°C° 0.2 mm 5 mps 733 mmHg 90%
04:00 +12°C° 0.6 mm 5 mps 733 mmHg 92%
05:00 +12°C° 0.6 mm 5 mps 732 mmHg 93%
06:00 +11°C° 0.6 mm 6 mps 732 mmHg 95%
07:00 +11°C° 0.6 mm 6 mps 731 mmHg 94%
08:00 +11°C° 0.6 mm 6 mps 731 mmHg 93%
09:00 +11°C° 0.6 mm 7 mps 730 mmHg 93%
10:00 +12°C° 0.8 mm 7 mps 730 mmHg 92%
11:00 +12°C° 0.8 mm 7 mps 730 mmHg 91%
12:00 +13°C° 0.8 mm 8 mps 729 mmHg 91%
13:00 +13°C° 0.5 mm 8 mps 729 mmHg 88%
14:00 +14°C° 0.5 mm 7 mps 729 mmHg 85%
15:00 +15°C° 0.5 mm 7 mps 729 mmHg 83%
16:00 +14°C° 0 mm 6 mps 729 mmHg 84%
17:00 +13°C° 0 mm 5 mps 729 mmHg 86%
18:00 +12°C° 0 mm 4 mps 730 mmHg 88%
19:00 +12°C° 0 mm 4 mps 729 mmHg 88%
20:00 +12°C° 0 mm 5 mps 729 mmHg 88%
21:00 +12°C° 0 mm 5 mps 729 mmHg 88%
22:00 +12°C° 0 mm 5 mps 728 mmHg 88%
23:00 +11°C° 0 mm 6 mps 727 mmHg 88%
Show more